STARLINK-3334 (50823 NORAD) Tracking and Keplerian Element Data

This shows tracking and keplerian element data for the satellite.

Feedback or suggestion? Click here.




ElementValue
Catalog50823
NameSTARLINK-3334
Epoch Orbit2198
Epoch Day140.58334491
Epoch Year2022
RAAN285.0471
Inclination53.2159
Eccentricity0.0002028
Argument of Perigee36.5399
Mean Anonmoly289.9194
Mean Motion15.0886483
Decay Rate-0.00030716
L11 50823U 22001W 22140.58334491 -.00030716 00000+0 -19187-2 0 9995
L22 50823 53.2159 285.0471 0002028 36.5399 289.9194 15.08864830 21984

Live tracking and technical data element details for STARLINK-3334 (NORAD 50823). STARLINK-3334 can be tracked NOW for your location showing map with azimuth and elevation plus other details from your city location.

Track the satellite on the map from your city or location and see movement details for azimuth, elevation, latitude, longitude, range, height, and movement on the map or in text.







IsCatalogInMostPopularTable: catalog: 50823, numindb: 20
Update: records affected: 1



GetName: 50823 STARLINK-3334

Hit Count: updated at: Sun, 22 May 2022 04:31:51 GMT